P/2022 L3 ( ATLAS )

Japanese version
Home page
Updated on April 23, 2023

---------------------------------------------------------------------

* Profile

Discovery Date June 12, 2022
Magnitude 17.6 mag
Discoverer Asteroid Terrestrial-Impact Last Alert System (ATLAS) search program

* Pictures

* Orbital Elements

Epoch 2023 Feb. 25.0 TT = JDT 2460000.5
T 2022 Oct. 29.95567 TT                                 Rudenko
q   2.4198564            (2000.0)            P               Q
n   0.05943873     Peri.   10.32816     +0.77076819     -0.61041210
a   6.5026395      Node    29.80551     +0.55522599     +0.50304287
e   0.6278655      Incl.   21.54307     +0.31247480     +0.61183734
P  16.6
>From 1078 observations 2022 June 12-2023 Apr. 10, mean residual 0".6.

* Finding Charts

* Magnitudes Graph

        m1 = 10.5 + 5 log d + 10.0 log r

---------------------------------------------------------------------

The orbital elements are published on M.P.E.C. 2023-H131.
The charts are made with StellaNavigator Ver.10 (AstroArts).
The magnitudes graphs are made with Comet for Windows.

---------------------------------------------------------------------

Copyright(C) Seiichi Yoshida (comet@aerith.net). All rights reserved.